x

8467150 - Bridgeport, Ct (brhc3) Weather Station

2:54pm - Sun 26th Mar 2017 All times are EDT. -4 hours from GMT.

  • Wind
    10mph, 18mph gusts
  • Air Temp 39°f
  • Sea Pressure 1031mb
  • 8467150 - Bridgeport, Ct
  • 8467150 - Bridgeport, Ct

More Historic Weather Station data

Upgrade to MSW Pro to gain access to the past 30 days of data for over 8000 Wavebouys and Weather Stations around the globe.

Join Pro

Comparision Forecast

View Surf forecast
   
Sun 03/26 2:54pm 10 18 mph 1031mb 39f
2:48pm 11 16 mph 1031.1mb 39f
2:42pm 11 16 mph 1031.2mb 39f
2:36pm 10 15 mph 1031.3mb 39f
2:30pm 9 17 mph 1031.3mb 39f
2:24pm 13 17 mph 1031.3mb 39f
2:18pm 9 18 mph 1031.4mb 39f
2:12pm 9 14 mph 1031.4mb 39f
2:06pm 11 20 mph 1031.4mb 39f
2:00pm 9 18 mph 1031.3mb 39f
1:54pm 10 15 mph 1031.4mb 39f
1:48pm 15 18 mph 1031.6mb 39f
1:42pm 11 18 mph 1031.8mb 39f
1:36pm 13 18 mph 1031.9mb 39f
1:30pm 13 18 mph 1032.1mb 39f
1:24pm 13 20 mph 1032.1mb 39f
1:18pm 11 21 mph 1032.1mb 39f
1:12pm 13 16 mph 1032.2mb 39f
1:06pm 13 16 mph 1032.1mb 39f
1:00pm 10 17 mph 1032.1mb 39f
12:54pm 10 15 mph 1032.2mb 40f
12:48pm 9 15 mph 1032.3mb 39f
12:42pm 9 18 mph 1032.3mb 39f
12:36pm 9 15 mph 1032.3mb 39f
12:30pm 9 14 mph 1032.3mb 39f
12:24pm 6 13 mph 1032.3mb 39f
12:18pm 6 15 mph 1032.3mb 39f
12:12pm 8 11 mph 1032.3mb 38f
12:06pm 7 11 mph 1032.4mb 39f
12:00pm 8 11 mph 1032.4mb 38f
11:54am 7 13 mph 1032.4mb 38f
11:48am 9 11 mph 1032.4mb 39f
11:42am 8 10 mph 1032.5mb 38f
11:36am 6 10 mph 1032.5mb 38f
11:30am 8 11 mph 1032.4mb 38f
11:24am 6 11 mph 1032.5mb 38f
11:18am 6 9 mph 1032.5mb 38f
11:12am 7 9 mph 1032.5mb 38f
11:06am 6 9 mph 1032.6mb 38f
11:00am 6 9 mph 1032.6mb 37f
10:54am 7 9 mph 1032.5mb 37f
10:48am 8 11 mph 1032.4mb 37f
10:42am 7 11 mph 1032.5mb 37f
10:36am 8 10 mph 1032.4mb 37f
10:30am 7 10 mph 1032.3mb 37f
10:24am 8 9 mph 1032.3mb 36f
10:18am 6 11 mph 1032.3mb 36f
10:12am 6 9 mph 1032.2mb 36f
10:06am 7 10 mph 1032.2mb 36f
10:00am 8 14 mph 1032.2mb 36f
9:54am 11 16 mph 1032mb 36f
9:48am 8 15 mph 1031.9mb 36f
9:42am 11 15 mph 1031.8mb 35f
9:36am 11 15 mph 1031.9mb 35f
9:30am 7 10 mph 1031.8mb 36f
9:24am 8 11 mph 1031.9mb 35f
9:18am 6 14 mph 1031.8mb 35f
9:12am 8 13 mph 1031.7mb 35f
9:06am 10 14 mph 1031.6mb 35f
9:00am 10 14 mph 1031.6mb 35f
8:54am 10 14 mph 1031.6mb 35f
8:48am 8 13 mph 1031.5mb 35f
8:42am 9 13 mph 1031.6mb 35f
8:36am 8 14 mph 1031.6mb 36f
8:30am 9 14 mph 1031.6mb 36f
8:24am 6 13 mph 1031.5mb 36f
8:18am 8 11 mph 1031.3mb 36f
8:12am 7 13 mph 1031.3mb 36f
8:06am 8 11 mph 1031.3mb 36f
8:00am 9 14 mph 1031.3mb 36f
7:54am 11 14 mph 1031.2mb 36f
7:48am 8 13 mph 1031.1mb 36f
7:42am 10 15 mph 1031.1mb 36f
7:36am 8 13 mph 1031.1mb 36f
7:30am 8 14 mph 1030.8mb 36f
7:24am 9 13 mph 1030.9mb 36f
7:18am 6 14 mph - -
7:12am 8 11 mph 1030.9mb 36f
7:06am 8 11 mph 1030.9mb 36f
7:00am 7 11 mph 1031mb 36f
6:54am 8 13 mph 1031mb 36f
6:48am 8 11 mph 1031mb 36f
6:42am 9 11 mph 1031mb 36f
6:36am 8 10 mph 1031mb 37f
6:30am 8 11 mph 1030.8mb 36f
6:24am 7 11 mph 1030.8mb 37f
6:18am 10 13 mph 1030.7mb 36f
6:12am 7 11 mph 1030.8mb 37f
6:06am 8 13 mph 1030.8mb 37f
6:00am 9 13 mph 1030.7mb 36f
5:54am 8 10 mph 1030.6mb 36f
5:48am 8 13 mph 1030.5mb 36f
5:42am 9 13 mph 1030.4mb 36f
5:36am 9 13 mph 1030.3mb 36f
5:30am 7 13 mph 1030.4mb 36f
5:24am 8 13 mph 1030.4mb 36f
5:18am 7 11 mph 1030.3mb 36f
5:12am 7 8 mph 1030.2mb 36f
5:06am 6 9 mph 1030.5mb 36f
5:00am 8 11 mph 1030.5mb 36f
4:54am 5 8 mph 1030.6mb 36f
4:48am 6 8 mph 1030.5mb 36f
4:42am 6 8 mph 1030.3mb 36f
4:36am 7 11 mph 1030.3mb 36f
4:30am 9 10 mph 1030.3mb 36f
4:24am 7 11 mph 1030.4mb 36f
4:18am 8 11 mph 1030.4mb 36f
4:12am 8 11 mph 1030.3mb 37f
4:06am 7 10 mph 1030.3mb 37f
4:00am 8 11 mph 1030.4mb 37f
3:54am 6 10 mph 1030.4mb 37f
3:48am 9 10 mph 1030.5mb 37f
3:42am 7 10 mph 1030.4mb 37f
3:36am 7 15 mph 1030.4mb 37f
3:30am 9 14 mph 1030.2mb 37f
3:24am 7 14 mph 1030.1mb 37f
3:18am 10 13 mph 1030mb 37f
3:12am 9 14 mph 1030mb 37f
3:06am 6 8 mph 1030.2mb 37f
3:00am 5 8 mph 1030.2mb 37f
2:54am 6 7 mph 1030.2mb 37f
2:48am 7 10 mph 1030.2mb 37f
2:42am 7 10 mph 1030mb 37f
2:36am 6 11 mph 1029.9mb 37f
2:30am 8 10 mph 1029.8mb 37f
2:24am 7 9 mph 1029.9mb 37f
2:18am 7 9 mph 1030mb 37f
2:12am 6 9 mph 1030mb 37f
2:06am 6 10 mph 1030mb 37f
2:00am 8 14 mph 1029.9mb 37f
1:54am 8 13 mph 1029.7mb 37f
1:48am 7 10 mph 1029.8mb -
1:42am 6 9 mph 1029.8mb -
1:36am 7 10 mph 1029.7mb -
1:30am 7 9 mph 1029.8mb 38f
1:24am 6 10 mph 1029.8mb 38f
1:18am 6 9 mph 1029.8mb 38f
1:12am 7 10 mph 1029.9mb 38f
1:06am 6 9 mph 1029.9mb 38f
1:00am 6 8 mph 1029.8mb 38f
12:54am 8 11 mph 1029.7mb 38f
12:48am 7 10 mph 1029.7mb 38f
12:42am 7 8 mph 1029.8mb 38f
12:36am 8 10 mph 1029.8mb 38f
12:30am 6 9 mph 1029.9mb 38f
12:24am 6 10 mph 1029.8mb 38f
12:18am 7 10 mph 1029.7mb 38f
12:12am 6 9 mph 1029.6mb 38f
12:06am 5 9 mph 1029.6mb 38f
12:00am 5 9 mph 1029.6mb 39f
Sat 03/25 11:54pm 6 8 mph 1029.5mb 39f
11:48pm 6 7 mph 1029.4mb 39f
11:42pm 6 8 mph 1029.3mb 39f
11:36pm 6 9 mph 1029.2mb 39f
11:30pm 7 10 mph 1029.2mb 39f
11:24pm 8 13 mph 1029.3mb 39f
11:18pm 7 10 mph 1029.2mb 39f
11:12pm 8 9 mph 1029.2mb 39f
11:06pm 6 10 mph 1029.3mb 39f
11:00pm 6 7 mph 1029.3mb 39f
10:54pm 7 13 mph 1029.3mb 39f
10:48pm 8 13 mph 1029.2mb 39f
10:42pm 10 13 mph 1029.2mb 40f
10:36pm 8 11 mph 1029.2mb 40f
10:30pm 8 13 mph 1029.1mb 40f
10:24pm 10 14 mph 1029.1mb 40f
10:18pm 7 11 mph 1029.2mb 40f
10:12pm 8 10 mph 1029.2mb 40f
10:06pm 7 8 mph 1029mb 40f
10:00pm 6 9 mph 1028.9mb 40f
9:54pm 7 11 mph 1028.8mb 41f
9:48pm 5 9 mph 1028.7mb 41f
9:42pm 6 9 mph 1028.5mb 41f
9:36pm 5 10 mph 1028.5mb 41f
9:30pm 6 9 mph 1028.5mb 41f
9:24pm 5 7 mph 1028.5mb 41f
9:18pm 6 9 mph 1028.5mb 41f
9:12pm 7 9 mph 1028.4mb 41f
9:06pm 6 9 mph 1028.3mb 41f
9:00pm 7 9 mph 1028.3mb 41f
8:54pm 8 10 mph 1028.2mb 42f
8:48pm 8 9 mph 1028.1mb 42f
8:42pm 5 10 mph 1028.1mb 42f
8:36pm 8 11 mph 1028.1mb 42f
8:30pm 6 9 mph 1028mb 42f
8:24pm 5 11 mph 1027.7mb 42f
8:18pm 8 11 mph 1027.6mb 42f
8:12pm 8 10 mph 1027.4mb 42f
8:06pm 6 9 mph 1027.3mb 42f
8:00pm 5 7 mph 1027.2mb 42f
7:54pm 3 6 mph 1026.6mb 42f
7:48pm 7 10 mph 1027.2mb 42f
7:42pm 8 10 mph 1027.1mb 42f
7:36pm 8 11 mph 1027mb 42f
7:30pm 5 9 mph 1026.7mb 42f
7:24pm 6 9 mph 1026.8mb 42f
7:18pm 9 14 mph 1026.9mb 42f
7:12pm 8 14 mph 1026.6mb 42f
7:06pm 7 11 mph 1026.3mb 42f
7:00pm 8 11 mph 1026.1mb 42f
6:54pm 7 11 mph 1025.9mb 42f
6:48pm 6 9 mph 1025.6mb 42f
6:42pm 7 9 mph 1025.5mb 42f
6:36pm 6 8 mph 1025.4mb 42f
6:30pm 5 7 mph 1025.4mb 42f
6:24pm 6 8 mph 1025.3mb 43f
6:18pm 6 9 mph 1025.3mb 43f
6:12pm 3 8 mph 1025.3mb 43f
6:06pm 5 8 mph 1025mb 43f
6:00pm 3 6 mph 1024.5mb 42f
5:54pm 6 7 mph 1024mb 42f
5:48pm 6 7 mph 1024mb 43f
5:42pm 3 6 mph 1024.2mb 43f
5:36pm 3 7 mph 1024.4mb 43f
5:30pm 6 8 mph 1024.6mb 43f
5:24pm 7 11 mph 1024.6mb 43f
5:18pm 9 11 mph 1024.6mb 43f
5:12pm 6 10 mph 1024.3mb 44f
5:06pm 7 10 mph 1025.2mb 44f
5:00pm 10 14 mph 1025.4mb 44f
4:54pm 9 14 mph 1025.6mb 45f
4:48pm 15 20 mph 1025.8mb 45f
4:42pm 13 22 mph 1025.6mb 45f
4:36pm 9 17 mph 1025.4mb 46f
4:30pm 13 18 mph 1025.1mb 46f
4:24pm 15 18 mph 1025mb 47f
4:18pm 8 15 mph 1024.8mb 48f
4:12pm 10 17 mph 1024.5mb 48f
4:06pm 11 17 mph 1024.4mb 48f
4:00pm 13 17 mph 1024.3mb 49f
3:54pm 14 16 mph 1024.1mb 49f
3:48pm 11 17 mph 1023.8mb 50f
3:42pm 13 18 mph 1023.8mb 51f
3:36pm 11 17 mph 1023.6mb 51f
3:30pm 9 16 mph 1023.4mb 52f
3:24pm 11 15 mph 1023.1mb 52f
3:18pm 7 14 mph 1023.1mb 52f
3:12pm 9 11 mph 1023mb 52f
3:06pm 8 11 mph 1023.1mb 52f
3:00pm 6 11 mph 1023.2mb 52f
2:54pm 8 11 mph 1023.1mb 52f
2:48pm 7 9 mph 1023mb 52f
2:42pm 8 11 mph 1023.3mb 52f
2:36pm 9 13 mph 1022.9mb 52f
2:30pm 10 14 mph 1022.8mb 52f
2:24pm 7 10 mph 1022.6mb 52f
2:18pm 8 10 mph 1022.6mb 53f
2:12pm 7 9 mph 1022.7mb 53f
2:06pm 6 8 mph 1022.5mb 53f
2:00pm 6 8 mph 1022.2mb 53f
1:54pm 5 7 mph 1022.3mb 53f
1:48pm 3 5 mph 1022.7mb 52f
1:42pm 2 8 mph 1022.5mb 52f
1:36pm 3 6 mph 1022.4mb 52f
1:30pm 5 7 mph 1022.3mb 52f
1:24pm 5 7 mph 1022.2mb 53f
1:18pm 5 8 mph 1022.5mb 53f
1:12pm 6 9 mph 1021.8mb 53f
1:06pm 5 9 mph 1021.8mb 53f
1:00pm 5 7 mph 1022.1mb 53f
12:54pm 5 7 mph 1022.2mb 52f
12:48pm 3 8 mph 1022.3mb 52f
12:42pm 6 13 mph 1021.7mb 53f
12:36pm 7 15 mph 1021.5mb 52f
12:30pm 11 15 mph 1020.8mb 52f
12:24pm 6 13 mph 1021.5mb 53f
12:18pm 9 13 mph 1020.9mb 52f
12:12pm 7 10 mph 1021.1mb 52f
12:06pm 8 10 mph 1021.5mb 52f
12:00pm 6 8 mph 1022mb 52f
11:54am 6 10 mph 1022mb 52f
11:48am 9 13 mph 1021.7mb 52f
11:42am 6 7 mph 1021.4mb 52f
11:36am 3 5 mph 1021.6mb 49f
11:30am 2 3 mph 1021.5mb 48f
11:24am 2 5 mph 1021.5mb 49f
11:18am 2 3 mph 1021.9mb 47f
11:12am 1 3 mph 1021.5mb 47f
11:06am 2
mph
1021.4mb 47f
11:00am  -  mph 1021.6mb 47f
10:54am  -  1 mph 1021.5mb 46f
10:48am 1 2 mph 1021.6mb 46f
10:42am 2
mph
1021.6mb 45f
10:36am 2
mph
1021.6mb 44f
10:30am  -  5 mph 1021.3mb 44f
10:24am 1 2 mph 1021.4mb 43f
10:18am 1 2 mph 1021.4mb 44f
10:12am  -  1 mph 1021.3mb 44f
10:06am  -  2 mph 1021.5mb 43f
10:00am 3 5 mph 1021.7mb 41f
9:54am  -  1 mph 1021.5mb 42f
9:48am 1 5 mph 1021.6mb 42f
9:42am 2
mph
1021.5mb 41f
9:36am 2 6 mph 1021.8mb 41f
9:30am 6 7 mph 1021.5mb 41f
9:24am 2 3 mph 1021.6mb 43f
9:18am 2 3 mph 1021.7mb 45f
9:12am 2 3 mph 1021.5mb 44f
9:06am  -  2 mph 1021.4mb 46f
9:00am 3
mph
1021.1mb 46f
8:54am 2 5 mph 1021.2mb 45f
8:48am 3
mph
1021.2mb 44f
8:42am 1 2 mph 1020.6mb 43f
8:36am 3 5 mph 1020.4mb 43f
8:30am 1 3 mph 1020.3mb 43f
8:24am 2 5 mph 1020.3mb 42f
8:18am 3 6 mph 1020.3mb 42f
8:12am 5 6 mph 1020.4mb 42f
8:06am 3 5 mph 1020.5mb 42f
8:00am 3 5 mph 1020.5mb 42f
7:54am 5 6 mph 1020.3mb 41f
7:48am 3 5 mph 1020.2mb 41f
7:42am 3
mph
1020.1mb 41f
7:36am 2
mph
1020.1mb 41f
7:30am 1
mph
1020.1mb 40f
7:24am  -  1 mph 1019.9mb 41f
7:18am  -  2 mph 1019.7mb 41f
7:12am  -  1 mph 1019.7mb 40f
7:06am  -  2 mph 1019.8mb 41f
7:00am  -  1 mph 1019.9mb 40f
6:54am  -  3 mph 1019.8mb 40f
6:48am 3
mph
1019.6mb 40f
6:42am  -  2 mph 1019.5mb 40f
6:36am 3
mph
1019.5mb 40f
6:30am 2 3 mph 1019.3mb 40f
6:24am 1 2 mph 1019.1mb 40f
6:18am 2 5 mph 1019mb 40f
6:12am 5
mph
1019.1mb 40f
6:06am 2 3 mph 1018.8mb 40f
6:00am 3
mph
1018.8mb 40f
5:54am 2 3 mph 1018.8mb 40f
5:48am 2
mph
1018.4mb 40f
5:42am 2
mph
1018.4mb 40f
5:36am 2 3 mph 1018.4mb 40f
5:30am  -  2 mph 1018.2mb 40f
5:24am 2 3 mph 1018mb 40f
5:18am 3
mph
1018mb 40f
5:12am 2 3 mph 1017.9mb 40f
5:06am 2
mph
1017.9mb 40f
5:00am 1 2 mph 1017.9mb 40f
4:54am 2 3 mph 1017.9mb 40f
4:48am 5 6 mph 1017.9mb 40f
4:42am 6 7 mph 1017.9mb 40f
4:36am 3 5 mph 1017.7mb 40f
4:30am 2 3 mph 1017.6mb -
4:24am 3
mph
1017.5mb 40f
4:18am 2
mph
1017.5mb 40f
4:12am 2 3 mph 1017.5mb 40f
4:06am 3 5 mph 1017.6mb 41f
4:00am  -  2 mph 1017.7mb 41f
3:54am  -  2 mph 1017.4mb 42f
3:48am  -  5 mph 1017.5mb 44f
3:42am 3 6 mph 1017.4mb 44f
3:36am 1 3 mph 1017.4mb 45f
3:30am 3 6 mph 1017.4mb 45f
3:24am 3 6 mph 1017.5mb 44f
3:18am 2 3 mph 1017.6mb 43f
3:12am 1 3 mph 1017.8mb 44f
3:06am 2 6 mph 1017.8mb 45f
3:00am 3
mph
1017.6mb 44f
2:54am 2 5 mph 1017.7mb 43f
2:48am 3 5 mph 1017.6mb -
2:42am 3 6 mph 1017.6mb -
2:36am 5
mph
1017.7mb -
2:30am 3
mph
1017.9mb 42f
2:24am 1 2 mph 1018.1mb 42f
2:18am 2
mph
1018.2mb 42f
2:12am 1 2 mph 1018.1mb 43f
2:06am 1 2 mph 1018.1mb 42f
2:00am  -  2 mph 1018.2mb 43f
1:54am 1 2 mph 1018.3mb 43f
1:48am 2
mph
1018.2mb 43f
1:42am  -  2 mph 1018.2mb 43f
1:36am 2 3 mph 1018.2mb 44f
1:30am  -  1 mph 1018.2mb 46f
1:24am 2 3 mph 1018.1mb 47f
1:18am 2
mph
1018.1mb 46f
1:12am 1
mph
1018.1mb 46f
1:06am  -  1 mph 1018.2mb 46f
1:00am  -  2 mph 1018.4mb 46f
12:54am  -  1 mph 1018.5mb 46f
12:48am 1 2 mph 1018.6mb 46f
12:42am 2 6 mph 1018.7mb 46f
12:36am 2 7 mph 1018.6mb 46f
12:30am 3 6 mph 1018.8mb 45f
12:24am 3 7 mph 1018.7mb 44f
12:18am 6
mph
1018.8mb 44f
12:12am 2 3 mph 1018.7mb 44f
12:06am 1 3 mph 1018.7mb 45f
12:00am 2 5 mph 1018.7mb 45f
Fri 03/24 11:54pm 1 2 mph 1018.8mb 44f
11:48pm 2 5 mph 1018.7mb 44f
11:42pm 3 6 mph 1018.7mb 44f
11:36pm 1 6 mph 1018.8mb 44f
11:30pm 3 8 mph 1018.7mb 44f
11:24pm 5 8 mph 1018.7mb 44f
11:18pm 5 7 mph 1018.9mb 44f
11:12pm 2 6 mph 1019.1mb 44f
11:06pm 6 7 mph 1019.1mb 44f
11:00pm 3 6 mph 1019.2mb 43f
10:54pm 3 8 mph 1019.3mb 42f
10:48pm 6 8 mph 1019.2mb 42f
10:42pm 5 7 mph 1019.3mb 41f
10:36pm 6 7 mph 1019.5mb 41f
10:30pm 3 6 mph 1019.7mb 41f
10:24pm 5 6 mph 1019.9mb 41f
10:18pm 5 6 mph 1020mb 41f
10:12pm 2 3 mph 1020.1mb 41f
10:06pm 3
mph
1020.2mb 40f
10:00pm 2 3 mph 1020.3mb 41f
9:54pm 2 3 mph 1020.2mb 41f
9:48pm 2
mph
1020.2mb 41f
9:42pm 2 3 mph 1020.2mb 42f
9:36pm  -  2 mph 1020.2mb 42f
9:30pm 2
mph
1020.2mb 43f
9:24pm 2
mph
1020.3mb 43f
9:18pm 2 3 mph 1020.2mb 43f
9:12pm 2
mph
1020.2mb 43f
9:06pm 3 5 mph 1020.1mb 44f
9:00pm 3
mph
1020.2mb 42f
8:54pm  -  1 mph 1020.4mb 43f
8:48pm 1 2 mph 1020.5mb 43f
8:42pm  -  1 mph 1020.4mb 44f
8:36pm  -  2 mph 1020.4mb 44f
8:30pm 1 2 mph 1020.3mb 44f
8:24pm 1 5 mph 1020.2mb 44f
8:18pm 2 3 mph 1020.1mb 44f
8:12pm 3 6 mph 1020mb 44f
8:06pm 3 6 mph 1019.8mb 44f
8:00pm 6 7 mph 1019.7mb 44f
7:54pm 5 6 mph 1019.7mb 44f
7:48pm 3 6 mph 1019.8mb -
7:42pm 1 3 mph 1019.8mb 44f
7:36pm 2 5 mph 1019.6mb 43f
7:30pm 2 3 mph 1019.5mb 42f
7:24pm 3 6 mph 1019.4mb 42f
7:18pm 5
mph
1019.3mb 42f
7:12pm 3 5 mph 1019.4mb 42f
7:06pm 3 5 mph 1019.5mb 42f
7:00pm 3 5 mph 1019.5mb 42f
6:54pm 3 5 mph 1019.6mb 42f
6:48pm 5 7 mph - -
6:42pm 6 9 mph 1019.5mb 42f
6:36pm 8 9 mph 1019.6mb 42f
6:30pm 6 8 mph 1019.7mb 44f
6:24pm 5 6 mph 1019.8mb 46f
6:18pm 5 8 mph - -
6:12pm 5 7 mph 1020mb 46f
6:06pm 5 7 mph 1020mb 46f
6:00pm 6 7 mph 1020.1mb 46f
5:54pm 5 7 mph 1020.1mb 46f
5:48pm 5 7 mph 1020.2mb 46f
5:42pm 5 7 mph 1020.3mb 46f
5:36pm 5 8 mph 1020.5mb 46f
5:30pm 5 9 mph 1020.6mb 46f
5:24pm 5 8 mph 1020.6mb 46f
5:18pm 7 9 mph 1020.5mb 46f
5:12pm 5 9 mph 1020.6mb 45f
5:06pm 6 9 mph 1020.7mb 45f
5:00pm 6 9 mph 1021mb 45f
4:54pm 7 9 mph 1021mb 45f
4:48pm 7 9 mph 1021mb 44f
4:42pm 6 8 mph 1021.1mb 44f
4:36pm 8 13 mph 1021mb 43f
4:30pm 8 11 mph 1021.1mb 44f
4:24pm 8 14 mph 1021.1mb 43f
4:18pm 10 14 mph 1021.1mb 44f
4:12pm 8 14 mph 1021.4mb 44f
4:06pm 8 11 mph 1021.5mb 44f
4:00pm 10 14 mph 1021.5mb 44f
3:54pm 7 11 mph 1021.6mb 43f
3:48pm 8 13 mph 1021.6mb 43f
3:42pm 8 13 mph 1021.8mb 43f
3:36pm 8 11 mph 1022mb 43f
3:30pm 7 11 mph 1022.1mb 43f
3:24pm 9 14 mph 1022.3mb 43f
3:18pm 8 16 mph 1022.6mb 43f
3:12pm 10 14 mph 1022.7mb 42f
3:06pm 8 13 mph 1022.8mb 42f
3:00pm 8 14 mph 1022.8mb 42f
2:54pm 10 13 mph 1022.8mb 42f
2:48pm 9 16 mph 1023.1mb 42f
2:42pm 7 13 mph 1023.2mb 42f
2:36pm 8 16 mph 1023.3mb 42f
2:30pm 10 14 mph 1023.3mb 42f
2:24pm 10 15 mph 1023.5mb 42f
2:18pm 11 15 mph 1023.8mb 42f
2:12pm 10 15 mph 1023.9mb 42f
2:06pm 13 15 mph 1024.2mb 42f
2:00pm 9 16 mph 1024.3mb 42f
1:54pm 10 18 mph 1024.5mb 42f
1:48pm 10 16 mph 1024.8mb 42f
1:42pm 9 15 mph 1024.9mb 42f
1:36pm 14 18 mph 1025mb 42f
1:30pm 10 18 mph 1025.2mb 42f
1:24pm 11 18 mph 1025.4mb 42f
1:18pm 10 16 mph 1025.6mb 41f
1:12pm 14 16 mph 1025.8mb 41f
1:06pm 10 17 mph 1026.2mb 42f
1:00pm 9 15 mph 1026.5mb 42f
12:54pm 11 18 mph 1026.6mb 42f
12:48pm 11 17 mph 1026.7mb 42f
12:42pm 11 15 mph 1026.9mb 42f
12:36pm 9 17 mph 1027mb 42f
12:30pm 13 17 mph 1027mb 42f
12:24pm 13 17 mph 1027.2mb 42f
12:18pm 9 15 mph 1027.6mb 41f
12:12pm 8 16 mph 1027.8mb 41f
12:06pm 10 16 mph 1028mb 41f
12:00pm 13 15 mph 1028.2mb 41f
11:54am 11 15 mph 1028.5mb 42f
11:48am 11 15 mph 1028.8mb 42f
11:42am 9 14 mph 1028.9mb 42f
11:36am 9 15 mph 1029mb 41f
11:30am 9 15 mph 1029.1mb 41f
11:24am 10 14 mph 1029.3mb 40f
11:18am 8 15 mph 1029.3mb 41f
11:12am 11 14 mph 1029.3mb 40f
11:06am 10 13 mph 1029.5mb 40f
11:00am 8 14 mph 1029.6mb 40f
10:54am 8 15 mph 1029.7mb 40f
10:48am 10 15 mph 1029.7mb 40f
10:42am 10 15 mph 1029.6mb 40f
10:36am 8 14 mph 1029.6mb 40f
10:30am 10 15 mph 1029.6mb 39f
10:24am 9 13 mph 1029.8mb 39f
10:18am 7 11 mph 1030mb 38f
10:12am 9 14 mph 1029.9mb 38f
10:06am 10 13 mph 1030.3mb 38f
10:00am 8 11 mph 1030.5mb 38f
9:54am 7 10 mph 1030.7mb 38f
9:48am 10 14 mph 1030.8mb 38f
9:42am 9 13 mph 1030.9mb 38f
9:36am 6 13 mph 1031.1mb 38f
9:30am 8 14 mph 1031mb 37f
9:24am 8 11 mph 1030.9mb 37f
9:18am 7 10 mph 1030.8mb 37f
9:00am 7 11 mph 1030.9mb 37f
8:54am 7 14 mph 1030.9mb 37f
8:48am 9 14 mph 1031.1mb 37f
8:42am 7 13 mph 1031.1mb 37f
8:36am 9 13 mph 1031.1mb 36f
8:30am 8 11 mph 1031.3mb 36f
8:24am 8 14 mph 1031.5mb 36f
8:18am 7 11 mph 1031.5mb 36f
8:12am 8 10 mph 1031.5mb 36f
8:06am 7 13 mph 1031.5mb 36f
8:00am 8 10 mph 1031.4mb 36f
7:54am 8 14 mph 1031.5mb 36f
7:48am 8 14 mph 1031.5mb 36f
7:42am 7 13 mph 1031.5mb 36f
7:36am 9 13 mph 1031.3mb 36f
7:30am 8 11 mph 1031.4mb 36f
7:24am 7 11 mph 1031.5mb 36f
7:18am 6 10 mph 1031.6mb 36f
7:12am 7 11 mph 1031.7mb 35f
7:06am 7 9 mph 1031.7mb 35f
7:00am 7 10 mph 1031.7mb 35f
6:54am 6 11 mph 1031.7mb 35f
6:48am 7 10 mph 1031.6mb 36f
6:42am 7 10 mph 1031.7mb 36f
6:36am 6 10 mph 1031.9mb 36f
6:30am 6 8 mph 1031.9mb 35f
6:24am 2 5 mph 1031.8mb 34f
6:18am  -  1 mph 1031.8mb 32f
6:12am  -  2 mph 1032mb 31f
6:06am 1 3 mph 1032mb 31f
6:00am 2 3 mph 1032mb -
5:54am 2 3 mph 1032.1mb 30f
5:48am 2 3 mph 1032.1mb 30f
5:42am 2 3 mph 1032.1mb 30f
5:36am  -  3 mph 1032mb 30f
5:30am 5 6 mph 1032.2mb 30f
5:24am 2
mph
1032mb 30f
5:18am  -  1 mph 1031.9mb 29f
5:12am  -  2 mph 1031.7mb 29f
5:06am 2 3 mph 1031.7mb 29f
5:00am 3 5 mph 1031.8mb 29f
4:54am 2
mph
1031.8mb 29f
4:48am 2 3 mph 1031.8mb 29f
4:42am 2 3 mph 1031.7mb 29f
4:36am 1 2 mph 1031.8mb 29f
4:30am  -  2 mph 1031.9mb 29f
4:24am 1 2 mph 1032mb 29f
4:18am  -  3 mph 1032.1mb 29f
4:12am 3
mph
1032.2mb 30f
4:06am 2 3 mph 1032.1mb 29f
4:00am 1 2 mph 1032.2mb 29f
3:54am 2
mph
1032.3mb 29f
3:48am 2
mph
1032.4mb 29f
3:42am  -  2 mph 1032.6mb 29f
3:36am 2 3 mph 1032.8mb 29f
3:30am 2
mph
1033mb 29f
3:24am 1 2 mph 1032.9mb 29f
3:18am 1 2 mph 1032.9mb 29f
3:12am 2 3 mph 1033.1mb 29f
3:06am 2 3 mph 1033.2mb 29f
3:00am 2
mph
1033.3mb 29f
2:54am 2 3 mph 1033.3mb 29f
2:48am 3 5 mph 1033.4mb 29f
2:42am 3 5 mph 1033.7mb 29f
2:36am 3 5 mph 1033.6mb 29f
2:30am 2
mph
1033.2mb 29f
2:24am 2
mph
1033.2mb 29f
2:18am 1 2 mph 1033.2mb 29f
2:12am 1 3 mph 1033.5mb 29f
2:06am 3
mph
1033.3mb 29f
2:00am 3 5 mph 1033.3mb 29f
1:54am 2
mph
1033.1mb 29f
1:48am  -  1 mph 1033.1mb -
1:42am  -  1 mph 1033.1mb -
1:36am  -  2 mph 1033.1mb -
1:30am 1 2 mph 1033.2mb 29f
1:24am  -  2 mph 1033.3mb 29f
1:18am 1 3 mph 1033.6mb 29f
1:12am 2 3 mph 1033.5mb 29f
1:06am 3
mph
1033.7mb 29f
1:00am 3 5 mph 1033.7mb 29f
12:54am 1 3 mph 1033.8mb 29f
12:48am 2 3 mph 1034mb 30f
12:42am 3 6 mph 1034mb 30f
12:36am 5
mph
1033.9mb 30f
12:30am 5 6 mph 1033.9mb 30f
12:24am 5 6 mph 1033.7mb 31f
12:18am 3 5 mph 1033.5mb 31f
12:12am 3 5 mph 1033.5mb 31f
12:06am 5
mph
1033.5mb 31f
12:00am 2 3 mph 1033.5mb -
Thu 03/23 11:54pm 2 3 mph 1033.5mb 31f
11:48pm  -  2 mph 1033.5mb 31f
11:42pm  -  1 mph 1033.5mb 31f
11:36pm 2 3 mph 1033.6mb 31f
11:30pm 2 3 mph 1033.6mb 31f
11:24pm 1
mph
1033.7mb 32f
11:18pm  -  1 mph 1033.8mb 32f
11:12pm  -  2 mph 1033.9mb 32f
11:06pm 1 7 mph 1034.1mb 32f
11:00pm 3 5 mph 1034.2mb 31f
10:54pm 2 3 mph 1034.3mb 31f
10:48pm 3 5 mph 1034.5mb 32f
10:42pm 3 5 mph 1034.7mb 32f
10:36pm 2 3 mph 1034.8mb 32f
10:30pm 3
mph
1034.8mb 32f
10:24pm 1 2 mph 1034.7mb 32f
10:18pm 2 3 mph 1034.7mb 33f
10:12pm 3
mph
1034.7mb 33f
10:06pm 1 2 mph 1034.9mb 33f
10:00pm 2 3 mph 1034.8mb 34f
9:54pm 2 3 mph 1034.5mb 34f
9:48pm 1
mph
1034.5mb 34f
9:42pm 2 5 mph 1034.5mb 34f
9:36pm 3
mph
1034.3mb 34f
9:30pm 2 3 mph 1034.4mb 35f
9:24pm 2 7 mph 1034.5mb 35f
9:18pm 5 6 mph 1034.9mb 36f
9:12pm 2 3 mph 1034.4mb 36f
9:06pm 1 2 mph 1034mb 36f
9:00pm  -  1 mph 1033.8mb 36f
8:54pm  -  2 mph 1033.8mb 35f
8:48pm 2
mph
1033.6mb 36f
8:42pm 2
mph
1033.5mb 36f
8:36pm 2 3 mph 1033.5mb 37f
8:30pm 1 2 mph 1033.4mb 37f
8:24pm  -  1 mph 1033.2mb 37f
8:18pm 1
mph
1033.1mb 37f
8:12pm  -  2 mph 1033.1mb 37f
8:06pm 2 3 mph 1033mb 38f
8:00pm 3 5 mph 1032.9mb 38f
7:54pm 1 2 mph 1032.9mb 39f
7:48pm  -  1 mph 1032.7mb 39f
7:42pm 1 3 mph 1032.5mb 39f
7:36pm 2 5 mph 1032.5mb 39f
7:30pm 2 3 mph 1032.5mb 39f
7:24pm 1 3 mph 1032.6mb 39f
7:18pm 2 6 mph 1032.5mb 39f
7:12pm 5 7 mph 1032.4mb 39f
7:06pm 5 6 mph 1032.4mb 39f
7:00pm 3 7 mph 1032.5mb 40f
6:54pm 6 7 mph 1032.5mb 40f
6:48pm 3 6 mph 1032.4mb 40f
6:42pm 5 8 mph 1032.4mb 40f
6:36pm 2 7 mph 1032.3mb 41f
6:30pm 6 9 mph 1032.2mb 40f
6:24pm 6 8 mph 1032.2mb 41f
6:18pm 6 14 mph 1032.1mb 41f
6:12pm 3 9 mph 1032mb 42f
6:06pm 7 10 mph 1032mb 41f
6:00pm 6 13 mph 1031.9mb 41f
5:54pm 7 13 mph 1032mb 40f
5:48pm 7 9 mph 1031.9mb 40f
5:42pm 5 14 mph 1031.9mb 41f
5:36pm 6 10 mph 1032mb 41f
5:30pm 7 11 mph 1031.9mb 41f
5:24pm 7 9 mph 1031.9mb 40f
5:18pm 6 9 mph 1031.9mb 40f
5:12pm 7 11 mph 1031.9mb 40f
5:06pm 8 16 mph 1031.9mb 40f
5:00pm 10 17 mph 1031.9mb 40f
4:54pm 5 20 mph 1032mb 40f
4:48pm 8 15 mph 1032.1mb 40f
4:42pm 7 16 mph 1032.1mb 39f
4:36pm 11 22 mph 1032.2mb 39f
4:30pm 10 16 mph 1032.3mb 39f
4:24pm 9 21 mph 1032.4mb 39f
4:18pm 13 20 mph 1032.5mb 38f
4:12pm 10 15 mph 1032.4mb 39f
4:06pm 9 15 mph 1032.5mb 38f
4:00pm 7 14 mph 1032.5mb 38f
3:54pm 9 17 mph 1032.5mb 38f
3:48pm 9 14 mph 1032.7mb 38f
3:42pm 9 18 mph 1032.7mb 37f
3:36pm 11 17 mph 1032.6mb 37f
3:30pm 7 16 mph 1032.7mb 37f
3:24pm 9 13 mph 1032.6mb 37f
3:18pm 10 15 mph 1032.8mb 37f
3:12pm 9 15 mph 1032.7mb 37f
3:06pm 10 13 mph 1032.8mb 37f
3:00pm 8 14 mph 1032.9mb 36f
2:54pm 11 17 mph 1032.9mb 36f
2:48pm 6 21 mph 1033mb 37f
2:42pm 7 11 mph 1033mb 36f
2:36pm 10 14 mph 1033.2mb 36f
2:30pm 9 13 mph 1033.2mb 36f
2:24pm 7 11 mph 1033.2mb 36f
2:18pm 10 16 mph 1033.2mb 35f
2:12pm 8 11 mph 1033.1mb 36f
2:06pm 6 10 mph 1033.3mb 36f
2:00pm 8 11 mph 1033.4mb 35f
1:54pm 8 15 mph 1033.4mb 35f
1:48pm 7 13 mph 1033.5mb 36f
1:42pm 8 13 mph 1033.5mb 35f
1:36pm 8 14 mph 1033.6mb 35f
1:30pm 11 15 mph 1033.7mb 34f
1:24pm 10 18 mph 1033.7mb 34f
1:18pm 9 14 mph 1033.6mb 34f
1:12pm 9 16 mph 1033.7mb 34f
1:06pm 10 16 mph 1033.7mb 33f
1:00pm 13 17 mph 1034mb 33f
12:54pm 10 14 mph 1034mb 33f
12:48pm 8 17 mph 1034.1mb 33f
12:42pm 11 18 mph 1034.2mb 33f
12:36pm 14 22 mph 1034.1mb 32f
12:30pm 13 18 mph 1034.2mb 32f
12:24pm 8 20 mph 1034.3mb 32f
12:18pm 13 22 mph 1034.4mb 31f
12:12pm 11 16 mph 1034.4mb 32f
12:06pm 8 16 mph 1034.5mb 32f
12:00pm 6 14 mph 1034.5mb 32f
11:54am 9 14 mph 1034.6mb 31f
11:48am 10 17 mph 1034.6mb 31f
11:42am 10 17 mph 1034.7mb 31f
11:36am 10 15 mph 1034.7mb 30f
11:30am 10 17 mph 1034.8mb 30f
11:24am 9 15 mph 1034.8mb 30f
11:18am 8 13 mph 1034.9mb 30f
11:12am 9 15 mph 1034.9mb 30f
11:06am 11 17 mph 1035mb 29f
11:00am 11 15 mph 1035mb 29f
10:54am 7 17 mph 1035mb 30f
10:48am 8 17 mph 1035mb 29f
10:42am 13 17 mph 1035.1mb 28f
10:36am 11 17 mph 1035.1mb 28f
10:30am 9 15 mph 1035.1mb 28f
10:24am 10 15 mph 1035.1mb 28f
10:18am 9 16 mph 1035.1mb 28f
10:12am 9 17 mph 1035.1mb 27f
10:06am 10 17 mph 1035.1mb 27f
10:00am 8 14 mph 1035.1mb 27f
9:54am 9 14 mph 1035.1mb 27f
9:48am 13 17 mph 1035mb 26f
9:42am 10 18 mph 1035mb 26f
9:36am 10 17 mph 1035mb 26f
9:30am 10 17 mph 1035mb 26f
9:24am 8 18 mph 1034.9mb 26f
9:18am 13 18 mph 1034.9mb 25f
9:12am 9 14 mph 1034.9mb 26f
9:06am 11 18 mph 1034.9mb 25f
9:00am 11 17 mph 1034.8mb 25f
8:54am 8 13 mph 1034.8mb 25f
8:48am 6 10 mph 1034.8mb 25f
8:42am 9 11 mph 1034.8mb 24f
8:36am 5 8 mph 1034.7mb 25f
8:30am 2 7 mph 1034.7mb 24f
8:24am 5 10 mph 1034.6mb 24f
8:18am 6 9 mph 1034.6mb 23f
8:12am 5 8 mph 1034.5mb 23f
8:06am 3 7 mph 1034.5mb 23f
8:00am 5 8 mph 1034.5mb 23f
7:48am 3 7 mph 1034.3mb 22f
7:42am 5 8 mph 1034.3mb 22f
7:36am 6 8 mph 1034.3mb 22f
7:30am 3 8 mph 1034.2mb 22f
7:24am 7 10 mph 1034.1mb 21f
7:18am 6 10 mph 1033.9mb 21f
7:12am 5 7 mph 1033.9mb 21f
7:06am 3 7 mph 1033.8mb 20f
7:00am 5 8 mph 1033.7mb 20f
6:54am 5 8 mph 1033.6mb 20f
6:48am 6 8 mph 1033.6mb 20f
6:42am 6 8 mph 1033.5mb 20f
6:36am 2 5 mph 1033.5mb 20f
6:30am 5 6 mph 1033.4mb 20f
6:24am 2 6 mph 1033.3mb 20f
6:18am 2 6 mph 1033.2mb 20f
6:12am 5 7 mph 1033.1mb 20f
6:06am 5 7 mph 1033mb 20f
6:00am 5 7 mph 1032.8mb 20f
5:54am 1 5 mph 1032.7mb 20f
5:48am 1 3 mph 1032.6mb 20f
5:42am 2 6 mph 1032.5mb 20f
5:36am 2 5 mph 1032.5mb 20f
5:30am 3 8 mph 1032.4mb 20f
5:24am 5 8 mph 1032.3mb 20f
5:18am 2 6 mph 1032.2mb 20f
5:12am 5 6 mph 1032.1mb 20f
5:06am 2 6 mph 1031.9mb 20f
5:00am 3 7 mph 1031.9mb 20f
4:54am 5 8 mph 1031.8mb 21f
4:48am 3 7 mph 1031.7mb 21f
4:42am 5 7 mph 1031.6mb 21f
4:36am 5 7 mph 1031.5mb 21f
4:30am 5 8 mph 1031.5mb 21f
4:24am 3 6 mph 1031.5mb 21f
4:18am 3 6 mph 1031.4mb 21f
4:12am 3 6 mph 1031.4mb 21f
4:06am 3 7 mph 1031.3mb 21f
4:00am 3 6 mph 1031.3mb 21f
3:54am 3 8 mph 1031.3mb 21f
3:48am 5 9 mph 1031.3mb 21f
3:42am 5 7 mph 1031.3mb 21f
3:36am 5 8 mph 1031.3mb 22f
3:30am 6 10 mph 1031.2mb 22f
3:24am 5 8 mph 1031.2mb 21f
3:18am 5 8 mph 1031.2mb 22f
3:12am 5 7 mph 1031.2mb 22f
3:06am 5 9 mph 1031.1mb 22f
3:00am 6 11 mph 1031mb 22f
2:54am 6 9 mph 1030.9mb 22f
2:48am 5 11 mph 1030.9mb -
2:42am 8 11 mph 1030.9mb -
2:36am 6 14 mph 1030.8mb -
2:30am 6 9 mph 1030.8mb 22f
2:24am 5 8 mph 1030.8mb 22f
2:18am 7 14 mph 1030.8mb 22f
2:12am 7 14 mph 1030.8mb 22f
2:06am 7 14 mph 1030.8mb 22f
2:00am 6 11 mph 1030.8mb 22f
1:54am 6 10 mph 1030.7mb 22f
1:48am 7 11 mph 1030.7mb 22f
1:42am 8 13 mph 1030.7mb -
1:36am 11 16 mph 1030.7mb -
1:30am 5 8 mph 1030.6mb 22f
1:24am 6 10 mph 1030.5mb 22f
1:18am 6 11 mph 1030.5mb 22f
1:12am 5 13 mph 1030.5mb 22f
1:06am 6 10 mph 1030.5mb 22f
1:00am 7 14 mph 1030.4mb 22f
12:54am 6 9 mph 1030.3mb 22f
12:48am 5 11 mph 1030.3mb 22f
12:42am 5 8 mph 1030.3mb 22f
12:36am 6 9 mph 1030.3mb 22f
12:30am 8 13 mph 1030.2mb 22f
12:24am 5 11 mph 1030.1mb 23f
12:18am 9 15 mph 1030.1mb 23f
12:12am 6 14 mph 1029.9mb 23f
12:06am 7 11 mph 1029.9mb 23f
12:00am 7 13 mph 1029.7mb 23f
Wed 03/22 11:54pm 9 14 mph 1029.6mb 23f
11:48pm 8 13 mph 1029.5mb 23f
11:42pm 7 11 mph 1029.5mb 23f
11:36pm 8 14 mph 1029.4mb 23f
11:30pm 8 10 mph 1029.3mb 24f
11:24pm 8 13 mph 1029.4mb 24f
11:18pm 13 22 mph 1029.2mb 24f
11:12pm 13 17 mph 1029.1mb 24f
11:06pm 14 24 mph 1029.1mb 24f
11:00pm 10 17 mph 1029.1mb 24f
10:54pm 9 14 mph 1029mb 24f
10:48pm 6 15 mph 1029mb 24f
10:42pm 10 17 mph 1029mb 24f
10:36pm 8 13 mph 1028.9mb 24f
10:30pm 8 13 mph 1028.9mb 24f
10:24pm 7 11 mph 1028.8mb 24f
10:18pm 8 13 mph 1028.7mb 24f
10:12pm 6 13 mph 1028.6mb 24f
10:06pm 9 13 mph 1028.5mb 24f
10:00pm 9 13 mph 1028.5mb 24f
9:54pm 9 15 mph 1028.5mb 24f
9:48pm 9 17 mph 1028.4mb 24f
9:42pm 9 16 mph 1028.4mb 25f
9:36pm 8 16 mph 1028.3mb 25f
9:30pm 8 14 mph 1028.1mb 25f
9:24pm 9 13 mph 1028mb 25f
9:18pm 8 17 mph 1027.9mb 25f
9:12pm 14 18 mph 1027.7mb 25f
9:06pm 10 16 mph 1027.7mb 25f
9:00pm 11 18 mph 1027.6mb 25f
8:54pm 9 17 mph 1027.4mb 25f
8:48pm 10 15 mph 1027.3mb 25f
8:42pm 13 17 mph 1027.2mb 25f
8:36pm 13 25 mph 1027.1mb 25f
8:30pm 13 23 mph 1026.9mb 26f
8:24pm 14 21 mph 1026.8mb 26f
8:18pm 10 17 mph 1026.6mb 26f
8:12pm 13 21 mph 1026.5mb 26f
8:06pm 9 16 mph 1026.4mb 26f
8:00pm 11 16 mph 1026.3mb 26f
7:54pm 11 18 mph 1026.2mb 26f
7:48pm 14 23 mph 1026.1mb 26f